DW0805 Weather Reports


time (UTC)temp
F
wind
direction
speed
knots
gust
knots
rain 1hr
in
rain 24hr
in
rain mn
in
humidity
%
barometer
mb
20260906012514 58 298 12.2 21.7 0.00 0.00 0.00 83 1015.1
20260906011515 58 285 13.0 18.2 0.00 0.00 0.00 83 1015.0
20260906005514 59 297 13.9 21.7 0.00 0.00 0.00 83 1014.8
20260905233515 59 319 10.4 20.9 0.00 0.00 0.00 82 1013.7
20260905232514 59 303 13.0 19.1 0.00 0.00 0.00 81 1013.7
20260905230516 59 300 13.9 20.0 0.00 0.00 0.00 81 1013.5
20260905224516 60 301 23.5 24.3 0.00 0.00 0.00 81 1013.3
20260905222514 60 300 15.6 21.7 0.00 0.00 0.00 81 1012.8
20260905221510 60 279 13.0 22.6 0.00 0.00 0.00 81 1012.7
20260905220514 60 289 11.3 21.7 0.00 0.00 0.00 80 1012.5
20260905215514 60 296 12.2 20.9 0.00 0.00 0.00 80 1012.3
20260905213514 60 276 12.2 26.1 0.00 0.00 0.00 79 1012.2
20260905211515 60 283 13.9 22.6 0.00 0.00 0.00 80 1011.9
20260905205515 60 286 14.8 22.6 0.00 0.00 0.00 80 1011.6
20260905202515 60 288 13.9 24.3 0.00 0.00 0.00 81 1011.3
20260905200515 60 296 13.9 24.3 0.00 0.00 0.00 78 1011.1
20260905195514 60 286 14.8 28.7 0.00 0.00 0.00 79 1010.9
20260905194516 60 281 19.1 24.3 0.00 0.00 0.00 79 1010.9
20260905193517 60 279 15.6 24.3 0.00 0.00 0.00 79 1010.7
20260905192515 60 293 15.6 30.4 0.00 0.00 0.00 79 1010.4
20260905191515 60 261 24.3 30.4 0.00 0.00 0.00 79 1010.4
20260905185515 60 260 16.5 31.3 0.00 0.02 0.00 79 1010.3
20260905180515 61 276 19.1 24.3 0.00 0.07 0.00 77 1009.6
20260905175515 61 326 15.6 28.7 0.00 0.09 0.00 76 1009.5
20260905172515 61 289 14.8 25.2 0.00 0.09 0.00 74 1009.2
20260905171515 62 275 18.2 24.3 0.00 0.09 0.00 72 1009.1
20260905165515 62 298 15.6 24.3 0.00 0.09 0.00 73 1009.0
20260905164516 63 278 15.6 24.3 0.00 0.09 0.00 74 1008.9
20260905163515 62 261 15.6 22.6 0.00 0.09 0.00 74 1008.8
20260905162515 63 281 15.6 22.6 0.00 0.09 0.00 73 1008.6
20260905160514 64 266 15.6 24.3 0.00 0.09 0.00 72 1008.4
20260905154516 64 261 11.3 19.1 0.00 0.09 0.00 75 1008.2
20260905153514 64 276 12.2 20.9 0.00 0.09 0.00 75 1008.1
20260905152514 64 261 13.0 24.3 0.00 0.09 0.00 74 1008.0
20260905151515 63 255 18.2 25.2 0.00 0.09 0.00 75 1007.9
20260905150514 64 281 12.2 25.2 0.00 0.09 0.00 72 1007.9
20260905144515 65 262 14.8 22.6 0.00 0.09 0.00 73 1007.7
20260905142514 65 257 13.9 24.3 0.00 0.09 0.00 74 1007.6
20260905134516 64 264 15.6 24.3 0.00 0.09 0.00 74 1007.5
20260905133515 64 275 13.9 20.0 0.00 0.09 0.00 78 1007.5
20260905132515 63 266 13.9 19.1 0.00 0.09 0.00 81 1007.3
20260905131515 62 258 16.5 24.3 0.00 0.11 0.00 77 1007.4
20260905125516 65 257 14.8 25.2 0.00 0.16 0.00 75 1007.3
20260905121514 63 255 13.9 22.6 0.00 0.24 0.00 77 1006.9
20260905120516 64 264 12.2 22.6 0.00 0.25 0.00 77 1006.9
20260905115515 64 249 10.4 21.7 0.00 0.28 0.00 79 1006.8
20260905112515 63 251 11.3 21.7 0.00 0.31 0.00 79 1006.6
20260905110515 63 311 11.3 18.2 0.00 0.33 0.00 78 1006.4
20260905102515 63 314 13.9 21.7 0.00 0.35 0.00 77 1006.1
20260905101516 63 261 13.9 22.6 0.00 0.35 0.00 77 1006.1
20260905095515 63 258 13.0 21.7 0.00 0.36 0.00 77 1006.0
20260905093515 62 269 14.8 21.7 0.00 0.36 0.00 77 1005.8
20260905090515 64 310 15.6 24.3 0.00 0.38 0.00 76 1005.5
20260905085515 63 305 15.6 22.6 0.00 0.39 0.00 78 1005.4
20260905084516 63 253 11.3 18.2 0.00 0.39 0.00 79 1005.5
20260905080515 62 321 9.6 19.1 0.00 0.39 0.00 80 1005.3
20260905075517 62 324 11.3 17.4 0.00 0.39 0.00 81 1005.3
20260905074515 62 272 13.0 21.7 0.00 0.39 0.00 79 1005.1
20260905072515 61 273 12.2 21.7 0.00 0.39 0.00 82 1005.0
20260905063515 61 252 11.3 18.2 0.00 0.39 0.00 83 1004.6
20260905060515 60 236 9.6 15.6 0.00 0.39 0.00 85 1004.4
20260905053515 59 308 12.2 21.7 0.00 0.39 0.00 84 1004.2
20260905052516 59 312 10.4 17.4 0.00 0.39 0.00 84 1004.2
20260905050515 59 286 11.3 18.2 0.00 0.39 0.00 84 1003.9
20260905043516 59 273 9.6 20.0 0.00 0.39 0.00 85 1003.5
20260905042515 59 265 11.3 18.2 0.00 0.39 0.00 85 1003.5
20260905040515 59 261 12.2 22.6 0.00 0.39 0.00 85 1003.3
20260905033515 59 248 10.4 15.6 0.00 0.39 0.00 85 1003.0
20260905031515 59 268 11.3 21.7 0.00 0.39 0.00 85 1003.0
20260905030515 59 249 12.2 17.4 0.00 0.39 0.00 84 1002.9
20260905024515 59 281 12.2 24.3 0.00 0.39 0.00 84 1002.7
20260905021515 59 288 13.0 22.6 0.00 0.39 0.00 84 1002.3
20260905015515 59 268 14.8 24.3 0.00 0.39 0.00 85 1002.1